Temperature
12 12 12 12 12 12 12 12 13 13 14 14 14 14 14 14 14 14 14 14 14 14 14 13 13 13 14 14 14 14 14 14 14 14 14 14 14 14 14 14 14 13 13
11 11 11 11 11 11 11 11 12 12 12 13 13 14 14 14 14 14 14 14 14 14 13 13 13 13 13 14 14 14 14 14 14 13 13 13 13 13 13 13 13 12 12
11 11 11 11 10 10 10 10 10 11 11 11 12 12 13 13 13 13 13 13 13 13 13 13 13 13 13 13 13 13 13 13 13 13 13 13 12 12 12 12 12 12 12
11 11 11 10 10 10 10 10 10 10 10 10 11 11 12 12 13 13 13 13 13 13 13 13 12 12 12 12 12 13 13 13 13 12 12 12 12 12 12 11 11 11 11
11 11 11 11 10 10 10 10 10 10 10 10 10 10 11 11 12 12 13 13 13 13 12 12 12 12 12 12 12 12 12 12 12 12 12 11 11 11 11 11 11 10 10
11 11 11 11 10 10 10 10 10 10 10 10 10 10 10 10 11 12 12 12 12 12 12 12 12 12 11 11 11 12 12 12 12 12 11 11 11 11 11 11 11 10 10
11 11 11 11 10 10 10 10 10 10 9 9 9 9 10 10 10 11 11 12 12 12 12 12 11 11 11 11 11 11 11 11 11 12 11 11 11 11 11 11 11 11 11
11 11 10 10 10 10 10 10 9 9 9 9 9 9 9 9 10 10 11 11 12 12 12 11 11 11 11 11 11 11 11 11 11 11 11 11 11 11 11 11 11 11 11
10 10 10 10 10 9 9 9 9 9 9 9 9 9 9 9 9 10 10 10 11 11 11 11 11 11 11 11 11 11 11 10 11 11 11 11 11 11 11 11 11 11 11
10 9 9 9 9 9 9 9 9 8 8 8 8 9 9 9 9 9 10 10 10 11 11 11 11 11 10 11 11 11 11 10 10 10 10 10 10 11 11 11 11 11 11
9 8 8 8 8 8 8 8 8 8 8 8 8 8 9 9 9 9 9 9 10 10 10 10 10 10 10 10 10 11 11 10 10 10 10 10 10 10 11 11 12 12 11
7 7 7 7 7 7 8 8 8 8 8 8 8 8 9 9 9 9 9 9 9 10 10 10 10 10 10 10 10 10 10 10 10 10 10 10 10 10 11 11 11 12 11
6 6 6 6 6 7 7 7 7 7 7 8 8 8 8 8 9 9 9 8 9 9 10 10 10 10 10 10 10 10 10 10 10 10 10 10 10 10 10 11 11 11 11
5 5 5 5 6 6 6 7 7 7 7 8 8 8 8 8 8 8 8 8 8 9 9 10 11 10 10 10 10 10 11 11 11 11 10 10 10 10 10 10 10 10 10
4 5 5 5 6 6 6 6 7 7 7 8 8 8 8 8 8 8 8 8 8 8 9 10 10 10 10 10 10 11 11 11 11 11 10 10 10 10 10 10 10 10 10
4 4 5 5 5 6 6 6 7 7 7 7 7 8 8 8 8 8 7 8 8 8 9 9 10 10 10 10 10 11 11 11 11 11 10 10 10 10 10 10 10 10 10
5 5 5 5 5 6 6 6 6 7 7 7 7 7 8 8 8 7 7 7 8 8 9 10 10 10 10 10 11 11 11 11 11 11 11 11 11 11 11 11 11 11 11
5 5 5 5 6 6 6 6 6 7 7 7 7 7 7 7 7 7 7 7 8 9 10 11 11 11 11 11 11 11 11 11 11 11 11 11 11 11 11 11 11 11 11
6 6 6 6 6 6 6 6 6 7 7 7 7 7 7 7 7 7 7 8 9 10 11 11 12 12 12 12 12 12 11 11 11 11 11 11 11 11 11 11 11 11 11
6 6 6 6 6 6 6 6 7 7 7 7 7 7 7 7 7 7 7 8 9 10 11 12 12 12 12 12 12 12 11 11 11 11 11 11 11 11 11 11 11 11 11
6 6 6 6 6 7 7 7 7 7 7 7 7 7 7 7 7 7 8 9 10 11 12 12 13 13 13 12 12 12 11 11 11 11 11 11 11 11 11 11 11 11 11
7 7 7 7 7 7 7 7 7 7 7 7 7 7 7 7 7 8 9 10 11 11 12 13 13 13 13 12 12 12 12 11 11 11 11 11 11 11 11 11 11 11 11
7 7 7 7 7 7 7 7 7 7 7 7 7 7 7 7 8 8 9 10 11 12 12 13 13 13 13 13 12 12 12 12 12 11 11 11 11 11 11 11 11 11 11
7 7 7 7 7 7 7 7 7 7 7 7 7 7 7 8 9 9 10 11 11 12 13 13 13 13 13 13 13 12 12 12 12 12 11 11 11 11 11 11 11 11 11
7 7 7 7 7 7 7 7 7 7 7 7 7 8 8 9 9 10 11 11 12 12 13 13 13 13 13 13 13 13 13 12 12 12 11 11 12 12 11 11 11 11 11
7 7 7 7 7 7 8 8 8 8 8 8 8 8 9 9 10 10 11 11 12 12 13 13 13 13 13 13 13 13 13 12 12 12 11 11 11 12 11 11 11 11 11
Wind_Speed
6 6 6 6 7 7 7 7 7 7 8 8 9 10 10 9 9 8 8 8 7 6 6 7 7 8 7 6 7 6 6 6 5 2 1 3 6 9 9 10 11 11 12
8 7 7 7 8 8 9 8 9 9 9 9 9 10 11 11 9 9 9 7 6 6 5 6 7 7 7 6 5 5 4 4 6 6 4 4 6 9 10 10 9 10 11
9 9 9 9 9 10 10 10 10 10 10 10 10 10 11 11 10 10 9 7 6 4 2 4 5 6 6 5 4 2 1 2 5 7 6 5 5 7 10 10 11 9 10
10 9 10 10 11 11 11 11 11 11 11 10 10 10 11 11 12 11 9 7 5 3 1 1 2 3 4 4 2 1 2 5 7 8 8 6 6 7 8 9 9 7 8
9 10 10 10 10 11 11 11 12 12 13 11 10 9 10 11 12 10 8 9 6 4 3 2 2 3 4 3 2 2 4 6 8 8 8 7 7 7 7 6 9 8 7
10 10 10 10 10 10 10 11 12 11 11 10 10 9 10 12 11 9 8 7 6 7 6 5 4 4 4 6 9 9 7 8 8 7 7 8 7 7 7 8 8 8 5
10 10 10 10 10 10 12 11 10 9 9 9 8 9 9 9 9 9 11 7 7 8 8 7 6 5 5 5 8 11 12 11 9 7 9 8 7 6 7 7 6 6 6
11 11 10 10 11 10 10 10 9 8 9 9 9 9 8 9 8 8 10 8 7 9 9 8 7 7 6 6 7 9 9 8 8 8 8 7 7 6 6 7 7 7 6
13 11 11 11 11 11 11 10 9 8 8 9 10 10 8 7 6 7 8 7 7 9 10 10 10 8 9 10 9 10 10 9 13 15 13 12 11 9 6 5 6 6 7
14 13 12 11 12 13 12 11 10 9 9 10 11 9 8 6 4 6 7 6 7 8 9 10 11 11 11 10 9 9 10 9 10 10 9 8 8 8 7 4 3 5 6
14 13 13 12 12 13 12 11 11 10 10 10 10 9 7 6 4 5 5 5 6 8 10 10 10 14 13 10 9 9 11 10 9 8 6 5 5 6 7 7 5 5 6
14 16 15 13 15 15 11 10 10 9 10 10 10 10 7 5 5 5 5 6 5 5 8 10 12 17 14 11 9 12 14 11 7 7 6 5 6 8 7 8 9 9 9
17 17 16 16 14 14 13 12 10 9 9 9 9 8 5 4 4 4 4 3 5 4 5 12 17 17 14 9 12 13 10 5 5 6 7 7 7 7 6 6 7 8 8
17 16 15 15 14 13 11 10 10 10 9 8 8 6 3 3 3 3 3 2 2 3 5 14 19 16 11 11 10 7 5 4 5 7 9 9 7 6 6 5 6 6 7
17 16 15 14 13 12 11 10 11 9 8 7 6 5 3 3 3 5 6 4 2 4 9 11 11 10 9 8 7 6 5 4 6 8 9 8 6 6 6 6 5 6 6
15 15 12 11 10 10 10 10 11 11 9 8 6 4 4 6 7 7 8 5 2 7 10 12 12 11 10 9 9 7 5 5 7 8 7 6 6 5 5 5 5 6 7
15 14 11 10 9 9 8 8 6 5 7 8 9 9 8 9 8 8 7 5 5 8 8 10 10 10 9 9 8 7 6 6 7 7 6 6 6 6 5 4 4 5 6
14 13 11 9 8 8 8 7 6 6 6 6 6 9 10 9 8 8 7 7 5 7 7 9 9 9 9 9 8 7 7 7 7 7 6 6 6 6 5 5 5 6 6
10 7 6 6 6 6 6 6 5 6 6 6 6 6 8 8 8 8 9 6 9 10 7 8 9 9 8 8 8 8 9 7 6 6 6 6 6 6 5 5 5 6 5
6 5 5 4 4 4 5 4 5 5 5 6 6 7 8 8 6 7 7 6 8 8 6 7 8 8 8 8 8 9 9 7 7 7 6 6 5 5 5 6 6 5 3
5 2 4 3 3 2 3 4 4 5 5 5 6 9 14 11 10 11 10 9 8 7 6 6 7 8 8 8 9 10 10 8 6 6 7 6 5 6 6 6 6 5 5
5 3 1 1 1 2 2 3 4 4 5 6 7 10 13 11 12 12 11 9 8 5 5 5 7 8 8 9 9 9 9 9 7 7 7 6 5 6 6 6 6 5 5
5 5 3 2 2 2 2 3 3 3 5 7 9 10 10 10 12 11 10 9 6 4 4 5 6 8 8 8 8 9 9 9 8 8 8 7 6 5 5 5 6 6 6
5 4 3 2 1 1 2 2 3 4 6 8 10 11 10 10 11 10 9 7 5 4 4 5 5 9 11 9 7 8 8 8 8 8 9 8 7 6 5 5 5 6 5
4 3 2 2 1 1 2 3 4 6 8 9 10 11 11 10 10 9 8 6 6 5 6 5 5 9 12 11 9 7 12 14 11 10 6 6 7 7 6 7 6 5 5
3 3 2 1 1 1 3 4 5 7 8 9 10 10 10 10 10 9 8 7 6 5 5 5 7 10 11 9 10 14 15 15 13 11 7 6 5 5 6 5 7 6 6
Wind_Direction
317 317 315 311 315 314 308 309 316 315 313 309 304 296 287 277 268 262 264 271 278 285 295 304 306 304 299 289 275 263 249 228 219 198 133 109 103 106 102 103 101 96 93
300 296 292 292 294 293 293 299 301 300 300 298 300 296 286 279 274 267 263 268 275 288 301 313 315 315 314 307 294 277 251 211 178 161 138 116 110 114 113 107 102 99 97
278 277 278 279 279 277 278 279 280 282 284 288 290 291 287 283 277 269 258 254 258 272 298 314 316 322 322 321 314 298 262 167 151 142 134 121 111 112 111 106 105 104 101
267 265 265 265 266 266 267 269 269 271 274 276 278 281 285 282 275 268 258 245 234 220 217 288 325 337 340 337 341 4 118 123 126 131 130 125 118 112 115 119 116 114 113
273 269 267 265 263 262 262 263 263 263 267 267 273 281 287 284 273 267 251 240 212 188 172 147 87 58 41 32 60 81 111 119 123 127 129 127 128 131 128 128 126 124 116
270 271 271 269 271 270 269 267 264 263 265 268 272 280 288 292 300 292 260 239 199 180 169 153 137 106 84 73 73 77 90 116 124 126 127 133 135 137 137 141 138 137 133
281 279 278 275 275 273 277 278 278 282 283 283 284 285 286 292 282 265 252 235 196 180 168 164 155 136 127 108 92 82 75 75 95 119 126 129 130 140 141 137 140 135 125
281 280 277 276 275 274 274 275 276 279 282 284 279 277 280 292 279 254 250 243 202 176 167 164 152 146 145 136 115 98 86 77 92 99 103 106 107 109 115 126 125 113 110
286 281 281 279 278 275 274 274 275 274 275 274 273 268 270 283 281 253 243 239 202 176 165 158 152 148 146 136 121 111 102 93 84 93 97 100 101 103 112 124 132 130 131
287 286 284 280 278 277 275 274 274 270 269 270 269 265 261 263 273 243 232 241 206 175 159 153 153 145 142 137 130 123 116 114 112 106 100 105 105 96 89 102 140 142 132
292 293 290 285 282 276 270 267 266 266 267 265 268 267 261 252 240 217 223 243 222 175 162 158 156 149 144 136 135 129 131 128 123 121 117 113 99 82 68 57 58 108 114
295 291 286 281 278 277 270 267 265 263 263 261 260 261 252 233 219 199 213 241 262 200 167 160 154 153 148 142 135 141 146 144 138 135 131 123 102 88 79 74 72 77 86
291 286 282 278 272 268 266 265 263 259 256 255 254 252 237 212 193 172 168 237 245 235 191 155 149 150 147 144 146 152 159 161 152 143 130 113 106 109 105 93 82 75 68
287 285 281 277 271 265 258 254 252 250 248 247 251 248 216 174 172 164 145 149 201 206 163 145 143 150 152 142 149 164 187 195 158 130 117 117 123 133 131 127 114 104 94
284 281 279 274 268 265 259 250 246 244 242 241 243 238 203 170 166 166 158 155 188 181 148 148 149 153 155 154 162 177 193 178 135 125 128 141 155 157 151 148 142 135 124
281 277 272 267 262 256 253 255 236 230 221 209 195 178 133 130 141 152 153 161 220 187 163 156 155 161 162 162 167 174 181 153 132 132 142 155 156 145 140 150 160 150 144
276 274 270 263 256 251 245 241 234 212 198 191 179 163 151 146 146 153 158 162 193 195 180 160 159 164 165 165 168 169 164 147 138 143 151 150 139 135 142 156 149 131 128
280 274 266 256 247 242 239 235 219 202 190 191 181 168 158 158 154 152 146 141 183 204 193 164 163 167 166 164 166 163 151 142 145 150 149 144 142 146 152 153 141 135 130
291 280 266 253 239 232 229 222 210 200 190 179 158 151 155 148 142 149 154 175 188 196 195 167 165 164 161 159 159 150 142 145 151 146 144 147 151 151 157 153 127 128 148
304 282 268 259 236 223 214 199 187 182 177 173 167 157 150 149 156 163 182 196 197 198 198 172 161 155 154 153 145 142 144 150 151 147 144 153 157 155 146 134 136 161 178
325 305 250 257 239 198 170 169 169 169 170 163 158 156 158 161 163 171 182 196 199 204 196 166 148 150 146 142 144 149 149 151 155 153 149 162 161 150 146 148 164 179 153
339 338 309 316 99 121 139 151 158 159 160 154 142 148 160 158 161 172 183 192 203 210 184 156 151 150 147 150 151 152 152 157 164 156 152 165 155 154 159 165 174 167 152
345 1 21 54 94 122 140 133 144 152 149 149 146 152 165 161 163 172 180 189 198 198 177 162 159 155 152 151 151 155 159 161 161 155 155 160 161 165 168 167 166 163 171
345 359 15 35 68 112 129 144 154 153 148 149 146 153 162 160 164 173 180 185 189 191 178 172 171 157 148 148 153 161 158 153 152 153 158 164 168 171 168 159 175 189 178
339 344 343 349 11 76 119 133 136 139 142 146 146 153 160 161 165 172 177 185 188 189 181 175 163 149 148 156 160 148 138 141 150 154 156 170 176 176 176 176 189 201 195
340 340 342 8 88 109 126 137 139 145 148 151 153 157 161 162 164 170 177 184 187 180 177 172 159 148 151 157 138 128 129 130 132 142 164 182 187 188 189 197 201 206 210
Height
1476 1473 1471 1469 1468 1466 1465 1464 1462 1461 1460 1459 1459 1458 1458 1458 1458 1457 1456 1455 1453 1451 1448 1446 1443 1440 1437 1435 1434 1433 1432 1433 1434 1436 1438 1440 1442 1443 1445 1447 1450 1452 1454
1471 1469 1466 1464 1462 1460 1459 1457 1456 1454 1453 1452 1451 1450 1450 1450 1451 1450 1450 1449 1448 1446 1443 1441 1438 1436 1433 1430 1428 1427 1426 1427 1429 1431 1435 1437 1440 1442 1444 1447 1449 1452 1454
1466 1464 1461 1459 1457 1455 1453 1450 1449 1447 1445 1444 1443 1443 1442 1442 1443 1443 1443 1443 1442 1441 1439 1436 1434 1431 1429 1426 1424 1422 1422 1423 1425 1428 1431 1435 1438 1441 1444 1446 1449 1452 1455
1461 1459 1456 1454 1452 1449 1447 1445 1443 1441 1439 1437 1436 1435 1435 1435 1435 1435 1436 1436 1436 1435 1434 1432 1431 1428 1426 1423 1421 1420 1420 1420 1423 1426 1430 1434 1437 1440 1443 1446 1450 1453 1456
1456 1454 1451 1449 1447 1444 1442 1440 1438 1436 1434 1432 1431 1429 1428 1428 1428 1428 1429 1429 1430 1430 1429 1429 1428 1426 1424 1422 1420 1419 1419 1420 1422 1425 1429 1433 1437 1440 1444 1447 1450 1454 1458
1449 1447 1445 1443 1441 1438 1436 1434 1432 1430 1429 1427 1426 1424 1423 1422 1421 1420 1422 1422 1423 1425 1425 1425 1425 1424 1423 1422 1421 1420 1421 1421 1423 1425 1430 1433 1437 1441 1445 1449 1452 1455 1459
1443 1440 1438 1436 1433 1431 1430 1428 1426 1424 1423 1422 1420 1419 1417 1415 1414 1413 1414 1416 1417 1419 1420 1421 1422 1422 1423 1423 1423 1422 1423 1424 1426 1428 1431 1434 1438 1442 1446 1450 1453 1457 1459
1435 1432 1430 1428 1426 1424 1422 1420 1419 1418 1416 1415 1414 1413 1411 1409 1408 1407 1407 1409 1411 1414 1415 1417 1419 1421 1422 1423 1424 1424 1425 1427 1429 1431 1434 1437 1441 1445 1448 1452 1455 1458 1462
1427 1425 1422 1420 1418 1416 1414 1413 1412 1410 1409 1408 1407 1406 1405 1403 1402 1401 1402 1403 1406 1409 1411 1414 1416 1419 1421 1423 1424 1425 1427 1429 1432 1435 1437 1441 1444 1448 1451 1454 1457 1460 1463
1419 1416 1414 1411 1409 1407 1405 1404 1404 1403 1402 1401 1400 1400 1399 1398 1397 1396 1396 1398 1401 1404 1407 1411 1414 1417 1420 1423 1425 1426 1428 1431 1434 1437 1441 1444 1447 1450 1453 1456 1458 1461 1464
1409 1406 1404 1402 1400 1398 1396 1396 1395 1395 1394 1394 1394 1393 1393 1393 1392 1391 1391 1393 1396 1399 1403 1407 1412 1416 1420 1423 1426 1428 1430 1433 1436 1439 1443 1446 1449 1452 1454 1457 1459 1462 1464
1399 1396 1393 1391 1390 1389 1387 1387 1387 1387 1387 1387 1387 1387 1387 1387 1386 1386 1386 1388 1391 1395 1399 1404 1409 1415 1419 1423 1427 1430 1432 1435 1438 1442 1445 1448 1451 1453 1456 1458 1460 1462 1465
1387 1383 1381 1380 1379 1378 1377 1377 1378 1378 1379 1380 1381 1381 1381 1382 1381 1381 1382 1384 1387 1391 1397 1402 1408 1414 1419 1424 1428 1431 1434 1437 1441 1444 1447 1450 1452 1454 1457 1459 1461 1464 1466
1374 1371 1369 1368 1367 1367 1367 1368 1369 1370 1372 1373 1375 1376 1377 1377 1377 1377 1378 1381 1384 1389 1394 1402 1408 1413 1419 1424 1428 1432 1435 1438 1442 1445 1447 1450 1453 1456 1457 1460 1462 1464 1467
1363 1360 1358 1358 1357 1358 1358 1359 1360 1362 1365 1367 1369 1371 1373 1373 1374 1374 1374 1378 1382 1387 1393 1400 1406 1413 1418 1423 1428 1432 1435 1439 1442 1444 1448 1451 1454 1457 1459 1462 1464 1466 1468
1352 1350 1349 1348 1348 1349 1350 1351 1353 1356 1358 1361 1364 1367 1368 1369 1371 1372 1373 1376 1381 1387 1393 1399 1406 1412 1418 1423 1427 1431 1435 1439 1442 1445 1448 1452 1455 1458 1461 1463 1465 1468 1469
1343 1341 1340 1339 1340 1341 1343 1345 1347 1350 1353 1356 1359 1362 1364 1366 1368 1370 1372 1377 1382 1388 1394 1400 1406 1412 1417 1422 1427 1431 1435 1439 1442 1446 1449 1452 1455 1458 1461 1464 1466 1469 1471
1336 1334 1333 1333 1333 1335 1337 1340 1342 1345 1348 1351 1354 1357 1360 1363 1365 1368 1371 1377 1383 1389 1395 1401 1406 1412 1417 1422 1426 1430 1434 1438 1442 1446 1449 1453 1456 1459 1462 1464 1467 1469 1471
1331 1329 1328 1328 1329 1331 1333 1336 1339 1341 1344 1348 1350 1354 1357 1360 1364 1368 1372 1378 1384 1389 1395 1402 1407 1412 1416 1421 1426 1430 1434 1438 1442 1446 1449 1453 1456 1459 1462 1464 1467 1469 1471
1329 1328 1327 1327 1327 1329 1331 1333 1336 1339 1342 1345 1348 1351 1354 1359 1363 1368 1373 1380 1386 1391 1396 1402 1407 1412 1416 1421 1425 1429 1433 1438 1442 1445 1449 1452 1456 1459 1461 1464 1466 1469 1471
1330 1328 1328 1328 1329 1330 1331 1333 1336 1338 1341 1344 1347 1349 1353 1358 1363 1369 1375 1381 1387 1392 1397 1402 1407 1412 1417 1421 1425 1429 1433 1437 1441 1445 1449 1452 1455 1458 1461 1463 1465 1468 1470
1332 1331 1330 1330 1330 1331 1332 1334 1336 1338 1340 1343 1346 1350 1354 1360 1365 1371 1377 1383 1389 1394 1399 1404 1408 1413 1417 1421 1425 1429 1433 1437 1441 1445 1448 1451 1455 1458 1460 1463 1465 1467 1469
1335 1333 1332 1331 1331 1332 1333 1334 1336 1337 1340 1343 1347 1351 1356 1362 1368 1374 1380 1385 1390 1395 1400 1405 1409 1414 1418 1422 1426 1429 1433 1436 1440 1444 1447 1451 1454 1457 1459 1462 1464 1466 1468
1336 1335 1334 1333 1333 1333 1333 1334 1336 1338 1341 1344 1348 1353 1359 1364 1370 1376 1382 1387 1392 1397 1402 1406 1410 1414 1418 1422 1426 1430 1433 1436 1440 1444 1447 1450 1453 1456 1458 1461 1463 1464 1466
1337 1335 1334 1334 1334 1334 1334 1335 1337 1340 1343 1347 1352 1357 1363 1368 1373 1379 1385 1390 1394 1399 1404 1408 1411 1415 1419 1423 1426 1430 1433 1436 1440 1443 1446 1449 1452 1455 1457 1459 1461 1462 1463
1338 1336 1335 1335 1335 1335 1336 1338 1340 1344 1347 1352 1356 1361 1366 1371 1377 1382 1387 1392 1396 1401 1405 1409 1412 1416 1419 1423 1426 1429 1432 1435 1439 1442 1445 1448 1451 1453 1455 1457 1458 1459 1460